Wind_Speed
34 34 33 33 33 32 32 31 30 29 29 29 29 29 28 27 25 24 23 22 21 20 19 17 16 14 13 12 12 11 11 11 11 11 11 11 11 11 11 11 11 11 11 11 11 11 12 11 11 11 11 11 11 12 12 12 13 13 13 14 13 13 14 14 14 14 14 14 15 14 13 14 14 12 11 9 9 10 10 9 9 8 7 6 7 8 9 10
36 35 35 34 34 33 33 32 31 31 31 31 31 30 29 28 27 25 24 23 22 21 20 18 17 16 15 14 13 13 12 12 11 11 11 11 11 11 10 11 11 11 11 11 11 12 12 12 12 12 12 12 13 13 13 14 14 14 14 15 15 14 14 15 15 14 14 15 16 15 14 14 14 12 11 10 9 10 10 10 11 9 8 8 8 9 10 11
37 37 37 36 35 35 34 34 33 32 32 33 33 32 31 29 28 26 25 24 23 22 21 20 18 17 17 16 15 14 13 13 12 12 12 11 11 11 10 10 10 11 11 11 12 12 13 13 13 13 13 14 14 14 15 15 15 15 15 16 16 15 15 16 16 15 15 15 16 16 14 13 14 13 11 11 9 9 10 12 12 10 10 9 10 10 11 12
39 39 38 38 37 37 36 35 35 34 34 34 34 34 32 31 29 28 26 25 25 24 23 21 20 19 19 18 17 16 15 14 13 13 13 12 12 11 11 11 11 11 11 12 13 13 14 14 14 14 15 15 15 16 16 17 16 16 16 16 16 15 16 17 18 17 16 16 16 17 15 14 15 14 11 11 10 9 11 14 13 11 11 11 11 12 13 14
41 41 40 39 39 38 38 37 36 36 36 36 36 35 34 33 31 29 28 27 26 25 24 23 22 21 21 20 19 17 16 16 15 14 14 13 12 12 11 11 11 12 12 13 13 14 15 16 16 16 17 17 17 18 18 18 18 17 16 17 16 16 18 18 18 18 17 17 17 17 16 15 15 14 12 11 11 10 12 13 14 13 13 13 13 14 15 15
42 42 42 41 41 40 39 39 38 38 38 38 38 37 36 34 33 31 30 29 28 27 26 25 24 23 23 22 20 19 18 17 16 15 15 14 13 13 12 12 12 12 13 13 14 15 16 17 18 18 19 18 19 20 19 19 18 17 16 17 16 17 19 19 19 19 19 18 18 18 17 16 15 14 13 12 12 12 11 13 14 15 15 15 15 15 16 17
42 43 43 43 43 42 41 41 40 40 40 40 40 39 37 36 34 33 31 30 30 29 28 27 26 25 25 24 22 21 20 18 17 17 16 16 15 14 14 13 13 13 13 13 14 15 16 17 19 20 19 19 20 20 19 19 18 16 17 18 17 18 20 20 20 20 20 19 18 19 18 17 15 14 13 13 13 14 12 13 15 16 16 16 17 17 18 18
42 43 44 44 44 44 43 43 42 42 41 41 41 40 39 37 36 34 33 32 31 30 30 29 28 27 26 25 24 22 21 21 20 19 18 17 17 16 15 14 14 13 13 13 13 14 15 17 19 19 19 20 20 20 19 19 17 17 18 19 19 19 21 21 20 20 20 20 19 18 18 17 15 14 13 13 15 16 15 14 15 15 16 17 18 18 19 19
41 43 44 44 44 45 44 44 43 43 43 43 43 42 41 39 37 36 35 34 33 32 31 30 30 29 28 27 26 24 23 23 22 21 20 19 19 18 17 16 15 14 14 14 13 14 15 17 18 19 19 19 20 20 19 19 18 18 19 20 21 21 21 21 21 21 20 20 19 18 18 17 15 14 14 15 17 18 17 16 16 17 18 19 19 19 19 19
40 41 43 44 44 45 45 44 44 44 44 44 44 43 42 41 39 38 37 36 35 34 33 32 31 30 29 28 27 26 25 25 24 23 23 22 21 20 19 18 17 16 16 15 15 15 16 17 17 18 19 20 20 20 20 19 19 20 20 21 22 22 22 22 22 22 21 21 20 19 18 17 15 14 15 18 19 19 19 19 18 19 20 20 20 20 20 20
38 40 41 42 43 44 44 45 45 45 45 45 45 45 44 42 41 40 39 37 36 35 35 34 33 32 31 30 29 28 27 26 26 25 24 24 23 23 22 21 20 18 18 17 17 16 16 17 17 18 19 20 20 20 21 21 20 21 21 22 23 23 23 23 23 23 22 22 21 20 19 17 16 16 17 20 19 19 20 20 21 21 21 21 21 21 21 21
38 39 40 41 42 43 44 44 45 45 46 46 46 45 45 44 43 42 40 39 38 37 36 35 34 33 32 31 31 30 28 28 28 26 26 26 25 25 24 23 22 21 20 20 19 18 18 18 18 19 20 20 20 21 22 22 22 22 22 23 25 25 24 24 24 24 23 22 21 21 19 17 18 18 19 20 20 20 20 21 22 21 22 22 21 21 21 21
39 39 40 40 41 42 43 43 44 45 45 46 46 46 46 45 44 43 42 41 40 39 38 37 36 35 34 33 33 31 30 30 29 28 28 28 27 26 26 25 25 24 23 22 21 20 20 19 19 20 20 20 21 22 23 23 23 24 24 24 26 27 25 24 25 25 25 23 23 23 20 18 19 20 20 21 20 21 22 22 22 21 21 21 21 21 20 21
40 40 40 40 41 41 42 42 43 44 45 46 46 46 46 46 45 44 43 42 41 40 39 38 37 37 36 35 34 33 32 32 31 30 30 29 28 28 27 27 27 26 25 25 24 23 22 21 21 21 21 22 22 23 24 24 24 25 26 26 28 28 26 25 26 26 25 25 25 25 22 18 20 21 21 22 21 22 23 23 22 21 21 20 21 21 20 21
42 42 42 41 41 41 42 42 43 44 44 45 46 46 46 46 45 45 44 43 42 42 41 40 39 38 37 37 36 35 34 34 33 32 32 31 30 30 29 29 28 28 28 27 26 25 24 23 23 22 22 23 24 24 24 25 26 27 29 30 30 29 28 26 26 26 25 26 27 27 25 20 20 22 22 22 22 22 23 23 22 21 21 21 21 21 21 22
44 44 44 43 43 42 42 42 43 43 44 44 45 45 46 46 45 45 45 44 44 43 42 42 41 40 39 39 37 36 36 35 35 34 34 32 32 31 31 31 30 30 30 29 28 27 26 25 25 24 24 24 25 25 25 27 27 29 31 32 31 31 30 27 26 27 27 27 28 29 27 23 23 23 23 23 23 23 22 23 23 22 22 22 22 22 23 23
46 46 46 45 45 45 44 44 43 43 44 44 44 45 45 46 46 46 46 45 45 45 44 44 43 42 41 40 38 38 37 37 37 37 36 34 34 33 33 32 32 31 31 31 30 29 28 27 26 26 25 26 26 26 27 28 29 31 33 33 32 32 32 30 29 29 28 29 29 30 28 26 26 25 23 23 23 23 23 23 23 23 23 24 24 25 25 25
48 48 48 47 47 47 46 46 45 45 45 45 45 45 45 45 46 46 46 46 46 46 46 46 45 44 43 41 40 39 39 39 40 39 37 36 36 35 34 34 33 33 33 32 31 31 30 29 28 28 27 26 26 27 29 31 31 33 35 34 34 33 33 33 31 30 30 31 30 30 28 27 28 27 25 25 25 24 23 23 23 24 25 26 26 27 27 27
51 50 49 49 49 49 48 48 48 47 47 46 46 46 46 46 47 47 47 48 47 47 47 47 46 46 45 43 42 42 41 41 41 40 39 38 38 37 36 35 35 35 34 34 33 33 32 31 30 29 27 27 28 29 31 32 33 35 36 37 36 34 34 34 33 32 32 32 32 31 30 28 28 28 27 27 27 25 24 24 24 24 26 28 29 28 28 28
54 53 51 51 51 50 50 50 50 49 49 48 48 48 48 48 48 48 48 48 47 48 48 48 47 47 47 45 45 44 42 42 42 42 41 40 39 39 38 37 37 36 36 35 35 35 34 33 31 28 28 30 31 31 32 34 35 36 38 38 38 37 36 35 36 36 34 33 32 32 32 29 27 29 29 29 28 25 24 25 25 25 27 29 30 31 30 29
57 56 54 53 53 52 51 51 51 51 51 50 50 50 50 49 49 49 49 49 49 49 49 49 49 49 48 47 46 45 44 43 43 43 43 42 41 41 40 39 38 38 37 37 37 36 35 35 31 29 31 33 34 34 34 35 36 37 38 39 39 38 36 36 37 38 37 35 33 32 33 30 28 30 31 30 28 25 25 26 27 27 28 29 31 32 31 30
59 59 58 57 55 54 53 53 53 53 53 52 52 52 52 52 52 51 51 51 51 50 50 50 51 50 49 49 48 47 46 45 45 45 44 44 44 43 42 41 40 39 39 39 39 38 37 35 32 32 34 35 35 35 35 37 38 38 38 38 38 37 37 37 37 38 39 38 35 33 34 32 29 30 31 31 29 26 26 27 28 29 29 30 32 32 32 31
61 61 60 60 59 57 55 54 54 54 54 54 54 54 54 54 53 53 54 54 53 52 52 52 52 52 50 50 50 49 48 47 47 47 47 46 45 45 44 43 42 41 41 41 40 39 38 36 34 35 36 36 35 36 37 38 39 39 38 38 36 35 36 37 36 38 39 39 36 35 36 33 30 31 31 30 29 26 27 28 29 31 31 32 33 33 32 32
62 62 62 62 62 61 58 57 57 55 55 54 55 55 55 55 55 55 55 57 57 55 54 54 54 54 53 52 52 51 51 50 49 49 48 48 47 46 46 44 44 44 43 42 42 41 40 37 37 37 37 37 36 37 37 39 40 40 39 38 36 35 36 36 36 37 37 38 37 36 39 35 30 32 30 29 29 27 27 29 30 32 33 33 34 34 33 32
63 64 64 64 64 63 62 61 60 57 56 56 56 56 56 57 57 57 57 59 61 58 56 56 56 56 55 55 54 54 53 52 51 50 50 49 48 48 48 47 46 45 43 43 44 43 41 39 39 39 38 37 37 37 38 39 40 40 39 38 36 36 36 36 36 37 37 37 37 38 41 37 31 31 28 26 28 28 28 29 30 33 34 35 36 35 33 33
62 64 65 65 65 66 66 64 62 60 59 57 57 57 58 58 58 58 58 61 64 62 58 58 58 58 58 58 57 55 56 55 53 52 51 51 50 50 49 48 47 46 44 44 45 45 43 40 40 40 39 38 38 39 39 40 41 41 39 37 36 36 36 36 36 38 39 39 39 40 43 42 35 29 25 26 28 28 28 29 30 33 34 35 36 35 34 33
62 63 65 67 67 67 67 66 65 63 60 59 59 59 59 59 60 60 59 62 66 65 61 60 60 60 60 59 58 57 58 57 54 54 53 52 51 50 50 49 48 47 45 45 47 47 45 42 41 41 41 41 41 40 39 40 41 41 38 36 37 37 37 37 38 39 41 42 43 43 42 44 40 29 23 26 29 28 27 28 30 32 34 34 34 34 33 33
64 63 63 65 67 68 68 68 67 65 64 63 62 61 61 61 61 61 60 63 68 68 64 63 62 62 62 61 60 59 60 59 57 56 54 53 52 50 50 50 49 48 46 47 49 48 47 46 45 43 42 42 41 39 38 39 40 40 37 36 37 37 38 39 40 41 41 43 46 42 39 43 43 34 28 28 27 27 26 27 30 32 34 34 34 33 33 32
62 63 64 64 66 69 69 69 68 67 67 67 65 64 64 63 63 62 62 65 69 69 68 66 64 63 63 63 62 62 61 61 59 57 55 54 53 51 50 49 49 49 49 49 49 48 49 49 47 44 41 41 40 38 37 37 39 39 37 37 37 38 39 40 41 40 41 45 45 39 35 40 44 39 34 31 26 26 27 28 30 33 34 35 34 34 33 32
54 56 59 63 64 67 70 71 69 68 68 68 68 67 67 67 65 64 66 68 69 70 70 69 66 65 64 64 64 63 62 62 60 59 58 57 55 53 52 50 50 50 50 50 49 49 49 49 48 46 43 42 41 39 37 37 38 38 38 37 37 39 39 40 41 41 44 47 43 37 35 40 45 41 34 32 29 27 28 29 31 33 34 35 35 34 33 32
55 50 51 54 56 60 68 71 70 70 69 68 69 68 68 69 69 69 70 71 70 71 73 72 69 67 66 65 65 64 63 62 62 61 60 59 58 57 55 54 53 52 53 53 52 51 50 50 50 49 47 46 44 42 39 39 39 39 39 38 38 39 41 42 43 43 46 47 42 39 38 42 47 41 35 35 32 30 30 29 31 33 35 36 36 35 34 32
59 56 51 48 48 50 57 66 71 72 70 69 70 69 68 70 73 75 74 72 71 72 75 75 72 70 69 68 68 67 66 65 64 63 62 60 60 58 57 56 54 54 56 55 54 52 51 51 52 51 50 48 45 42 41 40 40 39 40 40 39 41 43 45 45 44 46 47 44 42 43 46 46 39 35 37 36 35 34 31 31 33 35 36 36 36 35 34
58 58 55 51 48 45 45 54 65 72 73 73 74 73 72 75 77 75 71 70 71 72 72 73 72 72 72 71 70 70 69 68 67 66 65 63 62 61 59 58 57 56 56 54 54 54 54 53 53 51 48 45 43 41 40 39 40 41 41 40 41 42 44 45 45 45 47 47 46 46 48 48 44 37 36 37 38 39 38 35 34 35 36 37 36 36 35 34
59 58 56 52 50 48 45 47 52 59 67 73 78 79 78 79 76 71 69 68 68 69 68 69 69 70 71 71 70 70 69 69 69 68 67 66 65 63 62 60 58 56 55 54 55 57 57 57 53 49 46 43 42 41 40 40 41 42 41 41 43 42 42 43 45 46 48 48 48 49 50 48 43 39 38 38 38 39 38 36 36 36 36 36 36 35 35 34
61 59 57 55 53 51 50 50 50 51 56 62 72 82 84 81 76 71 69 67 67 68 68 68 68 68 69 69 67 67 67 66 67 67 67 66 65 64 62 60 59 57 56 56 57 58 58 57 53 48 46 44 44 43 41 41 42 43 43 44 44 40 39 42 46 48 48 50 51 51 51 48 44 41 40 39 38 37 36 36 36 37 36 35 34 33 32 32
62 60 59 58 55 52 51 52 53 54 55 56 63 74 75 71 71 71 69 67 68 69 69 70 70 68 69 68 66 64 63 62 62 62 62 61 61 59 57 56 55 55 54 53 54 55 54 54 52 50 48 46 46 45 45 44 45 46 46 44 42 40 41 44 47 48 49 51 53 52 51 48 46 43 39 38 38 37 36 36 35 36 35 33 32 30 30 31
60 60 63 61 55 52 50 51 54 57 58 60 63 63 57 51 56 63 67 68 69 69 69 71 72 70 70 69 67 65 64 62 61 59 57 57 56 54 51 51 50 50 50 49 50 50 50 51 52 51 50 48 47 47 47 48 48 48 47 44 42 44 45 45 47 49 50 53 55 54 52 50 48 44 39 38 40 39 37 35 34 33 33 32 31 30 29 30
57 57 61 61 57 54 52 51 55 58 61 64 65 62 54 45 44 50 57 63 67 68 68 68 69 70 71 70 69 67 66 64 62 60 58 57 55 52 50 49 48 47 47 48 49 49 49 50 50 49 49 48 48 48 49 50 50 49 46 45 46 47 47 46 48 50 51 54 56 55 54 51 47 45 43 41 40 38 36 34 33 31 31 31 30 29 29 29
58 57 58 57 56 56 55 53 56 60 64 65 64 60 55 48 44 46 51 57 62 65 65 64 65 68 69 69 69 68 67 66 64 62 61 59 55 52 50 49 48 47 47 48 49 48 48 49 50 49 49 49 49 49 49 48 47 46 46 48 49 49 49 48 49 51 52 54 56 56 56 52 47 46 45 43 40 37 33 33 32 30 29 28 27 27 29 30
59 59 60 57 55 56 56 56 58 62 63 62 61 58 53 49 49 50 51 53 56 59 59 58 62 66 66 66 67 67 67 66 64 62 61 59 56 53 51 50 49 47 47 48 47 47 48 49 51 52 51 51 50 48 46 44 44 46 48 50 50 49 49 50 51 52 52 53 55 56 57 54 49 49 47 44 41 36 32 31 31 29 28 28 28 28 30 31
61 61 61 59 57 57 57 59 62 63 61 58 56 55 52 51 52 53 53 54 56 56 55 55 59 61 61 63 64 64 64 63 61 60 58 58 56 53 51 49 48 47 47 49 47 47 48 49 50 51 52 51 49 47 46 46 47 49 49 50 50 49 50 51 53 53 51 51 51 55 59 55 50 52 50 45 43 38 33 31 29 28 28 29 30 31 32 34
66 63 59 59 61 61 63 66 65 65 64 58 53 51 50 49 49 51 54 56 57 56 54 54 56 56 57 59 61 62 63 62 61 59 58 57 55 52 49 47 46 47 49 50 49 48 49 50 51 52 52 51 49 48 49 49 50 51 52 52 52 51 51 51 53 52 50 51 51 54 60 56 50 53 52 47 43 41 37 33 29 28 29 31 31 32 33 34
68 65 61 61 63 64 68 72 71 71 69 62 55 54 52 47 46 49 50 53 55 55 55 56 56 56 56 58 59 62 64 64 63 62 59 58 55 51 48 47 47 47 49 51 51 50 51 52 52 52 52 51 51 51 51 51 53 55 54 53 52 52 52 53 53 53 53 54 53 55 60 58 54 55 54 48 44 43 40 36 32 31 31 31 32 32 32 32
68 66 67 66 61 58 64 71 74 73 68 62 59 58 56 51 49 49 48 49 51 52 52 52 52 52 52 52 55 58 62 64 64 63 61 59 57 52 49 49 49 49 50 50 49 48 50 50 49 50 50 51 52 54 54 55 55 54 53 52 53 54 54 55 55 55 56 56 55 57 61 59 55 56 54 50 46 43 41 38 35 33 32 33 34 33 32 32
69 70 73 73 64 57 59 63 67 68 63 60 58 55 55 56 53 51 50 49 49 49 49 46 45 45 45 45 46 48 52 56 59 61 61 60 58 54 51 49 49 50 49 49 49 50 51 50 50 51 51 51 52 52 52 52 52 53 53 54 55 55 55 57 57 59 61 60 59 61 62 58 55 55 54 51 48 45 43 42 40 37 35 35 36 35 33 32
72 74 76 77 69 61 60 58 58 61 60 60 57 52 51 55 54 52 52 53 51 49 48 46 44 44 43 42 40 39 40 43 48 53 56 57 56 54 51 49 48 48 47 48 51 52 52 52 53 54 54 53 51 51 52 54 56 57 57 57 57 57 59 61 63 65 65 63 64 63 61 58 56 55 54 51 49 48 47 46 43 40 38 38 37 36 35 35
75 76 77 80 75 66 63 61 58 59 60 60 60 56 53 52 52 53 55 53 51 50 50 50 50 47 45 42 40 38 38 39 41 45 48 50 50 49 47 44 43 44 44 45 48 51 52 53 54 55 56 55 53 53 56 59 60 60 60 59 60 61 63 67 69 69 65 65 66 62 58 59 57 53 52 50 50 51 50 47 44 42 42 42 40 39 39 41
76 76 76 82 83 74 66 63 61 59 59 59 59 59 57 55 54 56 56 53 51 51 51 53 54 50 46 43 42 41 41 41 41 41 41 42 43 43 42 40 41 43 44 44 47 49 51 53 54 56 56 55 53 53 56 59 60 61 61 62 63 65 68 70 70 67 62 63 65 60 58 60 57 53 52 51 51 51 48 47 47 47 47 46 45 45 45 46
76 77 76 81 88 84 73 64 61 59 58 59 60 58 57 58 58 57 55 54 54 53 51 51 51 49 47 46 45 45 44 43 42 40 39 39 40 41 41 40 41 43 45 48 50 53 55 55 56 57 58 58 56 56 58 61 63 63 64 64 64 66 67 67 65 61 58 60 61 57 57 59 56 54 54 51 49 47 46 48 50 52 51 51 51 51 50 50
77 77 77 80 87 90 83 74 68 64 59 58 61 61 58 56 58 59 59 59 58 57 55 51 47 46 47 48 49 48 47 46 44 40 39 41 42 42 43 43 42 42 45 49 52 54 56 54 53 54 55 56 56 57 59 60 60 60 62 63 63 64 64 63 60 56 55 56 54 52 55 56 54 52 51 48 47 47 47 49 51 53 54 54 53 53 53 53
77 77 78 79 82 87 89 87 83 79 72 64 61 62 61 59 58 58 59 59 59 60 61 58 52 50 51 51 52 50 47 47 46 43 42 44 44 43 45 46 45 44 45 47 49 51 51 49 48 49 51 50 48 50 53 52 52 54 56 58 59 60 59 57 55 53 53 52 50 50 53 53 49 49 49 49 49 48 48 49 51 53 54 54 53 53 53 55
77 76 77 79 80 83 86 89 91 92 89 81 70 65 65 65 65 65 63 60 58 58 60 59 57 58 58 57 55 52 48 47 47 47 48 47 45 45 46 46 45 44 44 44 46 47 48 47 47 48 50 48 45 47 49 49 50 53 54 53 52 52 54 54 53 52 51 50 50 52 52 49 48 50 52 52 51 49 48 50 51 53 54 55 55 55 55 56
Wind_Direction
216 216 215 215 215 215 216 216 215 213 211 208 204 202 202 202 202 203 204 205 204 203 201 199 197 197 198 198 196 194 192 193 196 197 199 199 200 201 202 204 205 208 209 210 212 214 217 219 222 225 229 236 244 252 260 267 274 279 284 291 298 302 303 304 305 305 306 304 302 302 306 305 303 304 300 289 266 256 261 270 277 285 295 298 293 291 294 294
217 217 216 215 215 216 216 215 214 213 211 208 205 203 203 204 204 205 206 207 206 204 202 200 200 200 202 202 202 199 195 197 198 198 200 199 199 200 202 204 207 210 213 216 220 223 225 227 231 234 239 245 252 259 266 271 276 281 288 294 297 299 302 302 300 302 304 303 302 302 305 304 302 303 297 289 266 251 258 266 272 284 295 298 293 289 288 288
218 217 216 216 215 216 216 215 214 213 210 208 206 204 204 205 206 207 208 208 208 206 204 203 203 203 205 206 206 203 202 203 203 204 206 205 205 206 208 211 214 217 221 226 230 233 236 238 241 245 249 253 259 265 269 273 278 284 290 292 294 298 302 300 299 302 303 303 302 301 306 304 298 299 297 288 271 249 248 259 269 282 291 295 295 292 288 287
220 218 217 216 216 216 216 215 214 212 210 208 207 206 205 206 207 208 209 209 209 208 207 205 205 206 207 209 209 207 207 209 209 211 212 212 214 216 219 222 225 229 232 237 241 244 246 248 251 254 257 260 264 268 271 275 280 284 287 289 292 299 302 302 303 304 304 302 300 300 303 299 295 300 298 285 272 248 239 255 270 279 286 292 293 291 289 289
220 219 217 216 216 216 216 215 214 212 210 208 207 207 207 207 208 209 210 210 210 210 209 208 208 209 210 211 212 211 211 214 214 216 218 219 221 223 227 232 235 240 243 247 250 254 256 257 259 261 263 265 268 270 272 275 278 281 284 285 289 300 303 304 305 305 304 301 299 299 299 296 295 297 294 284 272 253 242 252 266 274 282 288 289 289 288 288
221 219 218 217 216 216 216 215 214 213 211 209 208 208 207 208 208 209 210 211 211 211 211 211 211 211 212 214 215 215 215 218 220 221 223 224 226 229 232 236 240 245 250 254 257 260 262 264 265 265 266 268 269 269 271 274 275 278 281 282 289 300 303 303 304 304 302 300 298 297 296 296 294 293 290 283 274 263 250 249 258 268 277 284 288 289 287 287
223 220 219 217 216 216 215 215 214 213 211 210 209 208 209 209 210 210 211 212 213 213 213 213 214 214 215 217 218 218 218 222 225 225 227 229 231 233 236 239 243 248 252 257 260 263 266 267 266 266 267 268 268 269 271 272 274 276 279 282 291 299 301 302 303 301 299 298 296 295 295 293 291 290 287 282 277 271 260 251 253 261 269 278 284 286 286 285
223 222 220 219 217 216 215 215 214 213 211 210 210 209 210 210 211 212 213 213 214 215 215 216 216 217 218 219 221 221 221 224 227 229 230 232 234 236 239 242 244 249 254 259 262 266 267 267 267 268 269 268 269 271 271 272 274 276 280 285 292 298 301 301 301 299 297 295 294 294 292 291 289 285 284 283 277 272 267 262 260 262 267 273 278 280 280 280
223 222 221 220 219 218 217 216 215 213 212 211 210 210 211 211 212 213 214 215 215 216 217 218 219 220 221 222 224 224 223 225 228 231 233 235 237 239 242 245 247 251 256 261 265 268 269 269 270 271 271 270 271 272 272 273 275 276 280 287 293 297 300 300 299 296 294 292 292 291 289 288 286 283 282 278 272 273 274 273 272 272 272 274 275 276 275 275
223 223 221 221 220 220 218 217 216 215 213 212 211 211 212 212 213 214 215 216 217 218 219 220 221 222 223 224 226 227 226 228 230 232 236 238 240 242 245 247 250 254 257 262 265 268 271 273 273 272 272 272 272 273 274 274 276 277 281 288 293 297 299 298 297 295 293 291 290 289 286 286 283 279 276 271 270 276 279 279 278 277 276 276 277 276 275 275
224 223 222 221 221 221 220 219 218 216 215 213 213 213 213 214 215 215 216 217 218 220 221 222 223 224 225 226 228 229 229 232 233 234 237 240 243 245 247 250 252 255 259 262 265 268 271 274 275 275 273 273 274 275 275 275 277 280 284 289 293 296 298 297 295 293 291 289 289 287 285 284 281 276 272 271 273 276 277 278 278 277 278 278 279 279 278 278
224 223 223 222 221 221 220 220 219 218 216 215 214 214 214 215 216 217 218 219 220 221 223 224 225 226 227 228 230 231 231 234 235 236 239 242 244 246 249 252 254 256 259 261 264 267 270 273 277 277 276 276 276 276 276 277 279 282 286 290 293 294 296 296 293 291 288 287 287 285 284 282 277 273 271 273 275 275 275 276 276 278 279 279 279 279 279 280
225 224 223 222 221 220 220 219 219 218 217 216 216 216 216 217 218 219 220 221 222 223 225 226 227 228 229 230 232 233 234 236 237 238 240 242 244 247 250 252 254 257 258 261 264 266 269 274 276 278 279 278 277 276 278 279 282 284 286 289 291 292 294 294 292 290 290 289 286 282 280 277 275 272 272 272 273 274 275 274 275 277 277 278 278 278 279 279
226 225 225 223 222 221 220 219 219 218 217 217 217 218 218 219 220 221 222 223 224 226 227 228 230 231 232 233 235 236 236 238 239 240 241 243 245 247 249 252 254 256 258 260 263 266 270 274 277 279 280 279 278 277 279 281 283 285 286 287 287 289 292 293 292 291 291 290 286 282 278 274 272 271 271 272 273 274 275 276 276 276 275 276 276 277 278 277
227 226 226 225 224 223 222 221 220 219 219 218 219 219 220 221 222 223 224 225 227 228 229 230 232 233 234 235 237 238 239 240 241 242 243 244 245 247 249 252 254 256 258 260 263 267 270 274 277 279 280 280 279 279 280 282 284 286 286 285 285 288 292 293 292 290 289 286 283 281 279 276 272 271 271 273 274 274 275 276 276 275 274 274 274 275 275 276
228 228 227 227 226 225 224 223 222 222 221 221 221 221 222 223 224 226 227 228 229 230 231 232 233 234 236 237 238 240 241 243 243 244 245 245 246 248 250 252 254 256 259 261 264 267 270 274 276 279 280 280 281 282 282 282 284 284 282 284 287 290 292 293 290 287 284 282 281 280 279 277 273 271 272 274 275 276 275 274 274 274 274 274 273 273 273 274
229 229 229 228 228 227 227 226 226 225 225 224 224 224 225 226 227 228 229 230 231 232 233 234 234 235 237 238 239 241 243 244 245 246 246 247 248 249 250 252 254 257 260 262 264 267 269 272 276 278 279 281 282 283 282 281 281 281 281 285 288 290 292 291 288 286 284 281 279 278 278 278 276 274 275 276 276 276 274 272 273 274 275 274 273 273 273 274
230 230 230 230 230 229 229 229 228 228 228 227 227 228 228 229 230 230 231 232 233 234 235 235 236 237 238 239 240 241 243 244 246 247 248 248 249 250 251 253 255 257 260 262 264 266 268 271 274 277 280 282 281 280 279 279 280 282 285 286 287 289 289 288 287 286 283 280 277 275 274 274 275 277 279 280 278 275 272 270 271 273 273 274 274 274 274 275
231 231 231 230 230 231 231 231 230 231 231 230 230 230 231 232 232 233 234 234 235 236 237 237 238 238 238 239 240 241 243 245 247 248 249 250 250 251 252 254 256 257 260 262 264 265 267 270 273 278 282 280 277 277 278 279 282 285 286 287 287 286 285 286 285 282 280 278 277 275 273 270 272 278 281 281 280 278 275 272 271 272 274 276 277 277 276 277
233 232 231 231 231 231 232 232 232 232 232 232 233 233 233 234 235 235 236 236 237 238 239 238 239 239 239 239 241 242 243 245 248 249 250 251 252 253 253 254 256 258 260 262 263 264 267 269 274 279 280 277 276 278 279 281 284 286 287 287 287 287 286 285 283 280 278 276 275 274 273 271 273 277 280 280 280 280 276 273 272 273 276 280 281 281 280 279
234 233 233 232 232 232 233 233 233 234 234 234 234 235 236 236 237 237 238 238 239 240 240 240 240 240 240 241 242 243 244 245 248 250 251 252 253 254 254 255 257 259 260 262 263 265 267 269 274 276 275 275 277 279 281 283 286 287 287 287 287 287 286 283 280 280 279 277 275 273 272 272 273 276 279 281 281 279 274 272 273 275 277 280 281 282 282 281
234 234 234 233 232 232 233 233 234 234 234 235 235 237 237 238 238 238 239 239 239 240 241 241 241 240 241 243 244 245 245 246 248 250 251 252 253 255 255 256 258 260 261 262 263 265 267 269 273 273 274 276 279 280 282 284 286 287 286 286 286 285 283 281 279 279 278 277 276 274 272 271 273 277 280 282 281 278 275 274 276 277 279 281 280 281 282 282
234 234 234 234 234 233 233 233 234 234 235 236 236 237 238 238 239 239 240 240 239 240 241 241 242 242 242 244 245 246 246 247 248 249 251 252 254 255 256 258 260 261 262 262 264 266 267 270 271 272 274 276 278 281 283 285 286 286 285 284 283 282 281 281 280 278 277 277 276 274 272 271 274 279 280 281 280 278 277 277 278 280 281 281 281 282 283 282
235 235 235 235 235 234 233 233 234 234 236 237 238 239 239 239 239 240 241 241 239 239 240 241 242 242 242 243 245 246 247 248 249 250 251 253 255 256 257 259 260 261 262 264 266 266 267 269 271 272 274 276 278 281 283 285 286 285 283 281 281 280 280 280 279 278 277 277 277 276 273 272 274 278 279 279 279 278 278 279 282 284 284 283 283 283 284 282
235 235 235 235 236 235 234 233 233 234 236 237 239 240 240 240 240 241 242 243 240 238 239 241 242 243 244 245 245 247 249 249 249 251 252 253 254 256 257 258 260 262 264 266 266 265 266 269 271 272 275 277 278 280 282 284 283 282 281 280 280 279 279 280 279 278 277 276 276 276 276 275 274 276 278 277 275 275 276 279 282 284 284 284 284 284 284 283
237 236 236 236 236 236 236 234 234 234 235 237 239 240 241 241 242 242 243 244 242 238 239 241 242 243 244 245 246 247 249 249 249 251 251 252 253 255 257 258 260 262 264 266 266 265 266 269 271 274 275 276 278 280 282 282 280 278 278 279 279 278 279 278 278 277 276 276 276 276 278 279 276 275 278 275 272 272 275 279 282 282 282 283 284 285 285 283
237 236 236 237 237 237 237 236 235 235 235 237 238 240 241 242 243 243 244 246 243 239 239 240 241 243 244 246 247 248 248 248 249 250 251 252 254 255 257 258 259 261 263 265 265 265 267 269 271 273 275 277 279 282 281 279 278 277 277 277 277 277 276 275 275 275 276 277 277 276 280 282 279 277 275 270 270 273 278 282 282 281 282 283 284 285 284 283
236 237 237 237 237 237 238 237 237 237 237 237 238 239 240 241 243 243 245 246 243 240 240 240 240 242 244 245 246 247 248 248 249 250 250 252 254 254 256 258 260 261 263 264 265 266 268 269 270 272 275 278 281 282 279 276 275 275 275 275 275 274 273 273 273 273 275 275 275 277 282 284 281 279 276 269 270 277 281 282 281 281 282 283 285 285 285 283
234 236 237 238 238 237 237 237 237 238 238 238 238 238 239 240 241 242 244 244 242 241 242 241 240 242 244 245 246 247 249 250 251 251 252 253 254 256 257 258 260 261 262 264 266 267 268 270 271 272 274 276 279 279 277 274 272 273 273 273 272 272 271 272 272 274 275 274 275 280 284 283 280 278 278 277 279 281 282 282 283 283 284 285 286 287 286 284
235 236 236 238 239 239 239 238 237 238 239 239 239 239 239 239 240 241 242 242 242 243 245 244 242 242 243 246 247 248 249 251 252 253 254 254 255 256 257 258 259 260 262 264 265 267 268 270 272 273 274 276 277 275 272 271 270 271 271 270 270 271 272 273 273 275 274 273 277 282 282 281 279 278 281 284 284 282 281 282 284 287 289 289 288 286 286 284
240 241 239 238 241 243 241 238 238 238 239 240 240 239 239 239 239 239 241 242 243 244 246 246 245 244 245 246 248 249 250 251 252 253 254 255 255 256 257 258 259 261 262 263 265 266 268 270 271 273 274 274 273 270 268 268 269 270 271 271 271 271 271 271 272 272 273 276 281 283 281 278 277 280 286 287 287 286 284 283 286 290 291 289 288 286 283 281
244 245 246 244 244 245 242 238 238 238 238 239 240 240 240 240 238 238 241 243 244 245 246 247 248 247 246 246 247 248 249 250 251 252 253 254 255 255 256 257 259 260 261 263 265 266 267 268 270 271 272 273 272 270 268 268 269 270 269 269 269 269 269 270 271 273 276 280 283 283 281 277 276 282 286 288 290 290 287 288 290 290 288 286 286 285 283 280
246 246 248 249 247 245 240 236 238 239 239 240 240 239 239 239 239 240 243 243 244 247 248 249 250 250 249 248 248 248 248 249 250 251 252 253 254 255 256 257 258 260 262 264 266 267 267 267 268 270 272 273 271 269 268 267 266 264 264 265 265 267 269 271 275 278 279 280 281 280 278 277 279 284 287 288 289 288 289 292 292 288 286 285 283 283 282 280
246 246 247 249 247 244 240 239 241 241 241 241 241 240 239 239 241 243 243 244 245 247 249 250 251 252 252 252 251 250 250 250 251 251 253 253 254 255 256 258 259 261 262 263 265 266 267 267 267 268 269 268 267 266 265 263 262 261 261 261 263 265 270 275 278 278 278 279 279 278 277 278 283 287 287 286 284 285 289 291 291 289 286 285 284 284 283 280
246 246 245 246 245 243 242 243 243 244 244 244 244 243 240 241 244 245 244 245 246 246 247 248 249 250 252 253 252 252 252 252 252 253 253 254 256 257 258 259 261 261 262 263 264 265 266 267 267 266 265 264 263 262 261 260 260 260 260 260 263 267 271 273 275 276 278 279 278 277 278 281 285 285 285 285 286 288 288 289 290 290 289 288 287 285 282 277
245 245 244 244 245 244 244 245 246 247 247 248 248 246 245 244 246 247 246 245 245 246 247 248 249 250 252 253 254 254 254 253 253 253 254 255 256 257 258 259 261 262 262 263 264 265 265 266 264 263 261 260 259 259 259 258 258 259 260 262 266 268 268 270 272 275 277 278 277 277 279 281 283 282 283 288 291 291 288 288 290 291 292 291 287 283 277 272
243 244 245 244 244 246 246 246 248 249 249 250 251 250 251 249 247 247 247 245 244 244 245 247 248 250 252 254 255 255 256 256 255 255 254 254 254 254 256 258 259 260 261 262 262 262 262 262 261 261 260 258 257 257 257 258 259 260 261 264 265 266 267 269 272 274 276 277 276 277 278 279 281 283 287 291 291 291 290 290 291 293 292 288 283 279 273 267
238 241 244 244 243 244 245 244 246 250 249 248 250 251 250 247 246 246 246 244 244 243 243 244 246 248 250 252 253 254 255 256 256 255 255 254 252 251 253 255 257 258 260 260 260 259 259 260 260 259 258 257 256 255 256 257 258 260 262 264 264 265 266 268 271 274 276 277 277 277 278 278 280 285 290 290 289 289 290 290 292 291 287 282 278 273 268 264
233 235 239 240 241 242 243 244 248 251 249 244 246 250 248 244 243 243 242 243 244 244 243 243 245 246 248 249 251 253 254 255 256 256 257 255 252 249 251 253 253 255 257 258 258 258 258 258 258 257 256 256 255 255 257 258 260 261 262 262 262 263 265 268 270 273 275 278 279 281 280 277 279 283 285 285 285 286 288 290 289 287 282 277 272 266 263 261
229 232 236 236 236 238 241 244 247 248 245 241 245 250 249 246 245 244 242 243 244 245 244 242 243 244 245 247 249 251 253 254 255 256 257 256 253 250 248 249 249 251 255 257 257 257 257 257 257 258 258 258 258 259 260 261 260 258 258 259 260 262 265 268 270 273 276 280 282 284 281 276 276 279 280 283 285 287 290 289 286 281 274 268 265 264 262 260
226 228 233 235 234 234 236 240 242 241 240 239 242 248 248 245 245 243 241 242 242 244 243 242 242 243 243 245 247 249 250 252 253 254 255 255 254 252 249 249 250 251 255 258 258 258 258 258 258 258 259 260 261 261 259 257 257 257 258 259 261 263 267 271 273 276 280 282 282 281 277 273 274 278 280 285 289 291 291 287 281 275 268 263 262 264 264 263
224 222 227 231 232 233 235 238 238 237 238 237 237 242 242 240 240 240 238 239 241 242 242 242 243 243 242 243 245 247 248 250 251 253 254 254 253 253 252 251 251 251 253 255 257 259 259 257 256 255 256 257 258 257 256 257 258 259 258 259 262 265 270 274 276 277 279 278 277 277 275 273 274 277 281 286 289 289 288 284 276 269 265 263 263 264 266 267
225 221 222 225 226 228 231 234 236 236 236 235 233 235 234 232 232 234 236 239 240 241 242 242 243 244 245 244 244 246 247 249 251 252 253 254 254 254 254 253 252 251 251 252 254 256 257 257 256 256 255 255 255 256 257 258 259 260 262 265 268 269 271 274 275 275 275 274 276 278 275 272 274 277 280 284 287 287 286 282 275 266 263 263 264 264 267 270
227 220 218 220 223 225 226 227 231 235 236 234 232 231 231 228 227 230 233 236 237 237 238 239 241 242 244 245 245 245 247 249 251 252 253 255 255 255 256 254 253 252 251 251 253 255 256 257 256 255 254 253 253 254 255 258 262 266 268 269 270 270 271 272 273 274 273 271 273 276 273 273 276 279 280 283 286 286 284 281 275 267 262 262 264 264 267 272
227 220 215 216 221 226 227 225 228 231 233 232 232 230 229 228 227 228 230 230 230 232 233 233 236 238 240 243 245 246 247 249 251 252 253 254 254 254 254 254 253 253 253 252 252 253 255 257 257 255 254 253 253 254 257 261 266 268 267 268 269 270 272 273 274 274 272 269 270 272 273 276 278 278 279 281 284 286 284 279 273 267 263 263 264 266 269 271
227 222 216 214 218 224 227 226 227 228 228 229 230 229 228 228 225 225 227 228 230 232 232 231 233 237 238 240 242 245 248 249 250 251 252 254 254 254 255 256 256 256 256 255 255 255 255 255 255 256 256 255 255 256 260 263 265 265 265 267 269 270 272 274 274 273 273 273 272 272 273 275 276 276 277 279 281 282 279 276 274 271 269 268 268 270 271 270
228 225 219 215 217 221 223 224 227 228 227 228 229 228 228 228 226 226 227 229 231 233 233 233 234 235 236 238 241 245 249 251 251 250 251 254 256 256 256 257 259 259 259 260 259 258 258 257 257 259 260 260 258 259 262 263 264 265 266 267 268 270 273 274 274 274 275 274 273 273 274 274 274 274 275 276 276 276 276 276 276 274 271 270 270 273 274 273
228 228 223 218 218 220 220 221 225 228 228 228 230 229 228 227 228 230 230 230 232 233 234 234 234 234 237 240 243 245 246 247 248 248 250 253 254 256 256 255 256 258 262 263 262 262 263 263 264 264 264 264 262 261 262 263 264 264 266 267 270 272 273 274 275 276 274 271 272 272 272 272 274 274 273 272 272 273 275 277 275 273 272 273 273 273 274 274
227 228 226 223 221 220 219 219 223 227 229 230 230 230 230 230 229 232 232 232 235 235 235 234 232 233 237 239 240 241 242 245 246 245 249 253 254 255 256 255 254 256 260 263 262 262 263 263 264 264 264 264 262 262 263 265 266 267 268 269 271 273 274 274 274 273 270 269 271 272 271 272 274 274 274 274 273 272 272 271 271 272 273 273 273 273 273 273
227 227 226 226 225 223 221 220 221 224 226 229 231 230 230 231 231 233 236 237 239 241 243 241 236 236 239 240 241 242 243 247 249 247 248 252 254 253 254 255 253 252 255 258 259 260 262 262 262 265 266 264 263 264 265 266 267 268 267 269 270 272 272 271 270 271 271 272 273 272 271 270 271 273 276 276 274 270 268 266 266 268 270 271 273 274 275 276
227 227 227 228 228 227 225 224 224 225 226 227 230 231 231 231 231 234 239 242 243 246 247 246 244 244 246 246 246 246 246 249 251 250 250 251 253 253 254 255 254 252 251 254 256 258 260 262 263 266 267 266 265 265 264 265 266 264 263 266 269 270 269 270 272 273 273 273 272 269 268 269 271 273 272 269 268 267 266 265 264 265 268 270 272 273 275 277
226 227 228 230 230 229 229 228 228 230 231 230 229 232 234 235 235 237 240 242 242 243 245 245 245 246 247 247 247 248 248 248 249 250 250 250 251 253 253 251 251 252 252 252 253 255 257 260 262 264 265 265 264 263 263 263 262 261 263 266 268 268 269 271 272 271 271 271 270 267 267 269 269 268 267 265 264 264 264 264 264 265 267 269 271 273 275 276
Height
5824 5826 5828 5830 5832 5834 5836 5838 5840 5842 5843 5845 5847 5849 5850 5852 5853 5854 5855 5856 5857 5858 5859 5860 5861 5862 5863 5865 5866 5867 5868 5869 5869 5870 5871 5872 5873 5874 5875 5876 5877 5878 5879 5879 5880 5881 5881 5882 5883 5883 5884 5884 5884 5885 5885 5885 5885 5885 5885 5885 5886 5886 5886 5885 5885 5885 5885 5885 5885 5885 5885 5884 5884 5884 5884 5884 5884 5883 5883 5883 5883 5883 5884 5884 5884 5884 5883 5883
5821 5823 5825 5827 5829 5832 5834 5836 5837 5839 5841 5843 5845 5847 5848 5850 5851 5853 5854 5855 5856 5857 5858 5859 5860 5861 5862 5864 5865 5866 5867 5868 5869 5870 5871 5872 5873 5874 5874 5875 5876 5877 5878 5879 5879 5880 5881 5881 5882 5882 5883 5883 5884 5884 5884 5884 5884 5884 5884 5884 5884 5885 5885 5884 5884 5885 5884 5884 5883 5883 5884 5883 5882 5883 5882 5882 5883 5882 5882 5882 5882 5882 5883 5883 5883 5883 5882 5882
5818 5820 5822 5824 5827 5829 5831 5833 5835 5837 5839 5841 5843 5845 5846 5848 5850 5851 5852 5853 5855 5856 5857 5858 5859 5860 5861 5863 5864 5865 5866 5867 5868 5869 5870 5871 5872 5873 5874 5875 5876 5876 5877 5878 5878 5879 5880 5880 5881 5881 5882 5882 5883 5883 5883 5883 5883 5883 5883 5883 5883 5883 5883 5882 5882 5883 5883 5883 5882 5881 5882 5882 5881 5881 5881 5881 5881 5881 5881 5880 5880 5881 5881 5881 5881 5881 5881 5881
5815 5817 5819 5822 5824 5826 5828 5830 5832 5834 5836 5838 5840 5842 5844 5846 5847 5849 5850 5852 5853 5854 5855 5857 5858 5859 5860 5861 5863 5864 5865 5866 5867 5868 5869 5870 5871 5872 5873 5874 5875 5875 5876 5877 5877 5878 5878 5879 5880 5880 5881 5881 5882 5882 5881 5881 5881 5881 5881 5881 5881 5882 5881 5880 5880 5881 5881 5881 5880 5880 5881 5880 5879 5879 5880 5880 5880 5880 5880 5879 5879 5879 5880 5880 5880 5879 5879 5879
5812 5814 5816 5818 5821 5823 5825 5827 5829 5831 5834 5836 5838 5840 5842 5843 5845 5847 5848 5850 5851 5852 5854 5855 5856 5858 5859 5860 5861 5863 5864 5864 5865 5867 5867 5868 5870 5871 5872 5873 5873 5874 5875 5876 5876 5876 5877 5878 5878 5879 5879 5880 5881 5880 5880 5880 5880 5880 5880 5880 5880 5880 5879 5879 5879 5879 5879 5879 5879 5878 5878 5879 5878 5878 5878 5878 5878 5879 5879 5878 5878 5878 5878 5878 5878 5878 5878 5877
5809 5811 5813 5815 5817 5819 5822 5824 5826 5829 5831 5833 5835 5837 5839 5841 5843 5844 5846 5847 5849 5850 5852 5853 5855 5856 5858 5859 5860 5861 5862 5863 5864 5865 5866 5867 5868 5869 5870 5871 5872 5873 5874 5874 5874 5875 5875 5876 5877 5877 5878 5879 5879 5878 5879 5879 5879 5879 5878 5878 5879 5879 5878 5877 5877 5877 5877 5877 5877 5876 5877 5877 5877 5877 5877 5877 5877 5877 5877 5877 5877 5877 5877 5877 5876 5876 5876 5876
5806 5808 5810 5812 5814 5816 5818 5821 5823 5825 5828 5830 5832 5835 5837 5839 5840 5842 5844 5845 5847 5848 5850 5851 5853 5854 5856 5857 5858 5860 5861 5862 5863 5864 5865 5866 5867 5868 5869 5870 5871 5871 5872 5872 5873 5873 5874 5875 5875 5875 5876 5877 5877 5877 5877 5877 5877 5878 5877 5876 5877 5878 5877 5876 5876 5876 5875 5875 5875 5875 5875 5875 5875 5875 5875 5875 5875 5875 5876 5876 5876 5876 5876 5875 5875 5875 5875 5874
5803 5805 5807 5809 5811 5813 5815 5817 5820 5822 5824 5827 5829 5832 5834 5836 5838 5840 5841 5843 5844 5846 5848 5849 5851 5852 5854 5855 5856 5858 5859 5860 5861 5862 5863 5865 5866 5866 5867 5868 5869 5870 5870 5871 5871 5872 5872 5873 5873 5874 5874 5875 5875 5875 5875 5876 5876 5876 5875 5875 5875 5876 5875 5875 5875 5874 5874 5873 5873 5873 5873 5873 5873 5873 5874 5873 5873 5872 5873 5874 5874 5875 5875 5874 5874 5874 5873 5873
5800 5802 5804 5806 5809 5811 5812 5814 5817 5819 5821 5823 5826 5828 5831 5833 5835 5837 5839 5840 5842 5844 5845 5847 5849 5850 5852 5853 5854 5856 5857 5858 5859 5860 5862 5863 5864 5865 5865 5866 5867 5868 5868 5869 5870 5870 5870 5870 5871 5872 5872 5873 5873 5873 5873 5874 5874 5874 5874 5873 5873 5874 5874 5873 5872 5872 5872 5871 5871 5871 5871 5871 5872 5872 5872 5871 5870 5870 5871 5872 5872 5872 5872 5872 5872 5872 5872 5872
5796 5798 5801 5803 5806 5808 5810 5812 5814 5816 5818 5820 5823 5825 5827 5830 5832 5834 5836 5838 5839 5841 5843 5845 5846 5848 5849 5851 5852 5853 5855 5856 5857 5859 5860 5861 5862 5863 5864 5864 5865 5866 5866 5867 5868 5868 5868 5869 5869 5870 5870 5870 5871 5871 5871 5872 5872 5872 5872 5872 5871 5872 5872 5871 5870 5870 5870 5869 5869 5869 5869 5870 5870 5870 5870 5869 5868 5869 5869 5869 5870 5870 5870 5870 5870 5870 5869 5869
5793 5795 5797 5800 5802 5805 5807 5809 5811 5813 5815 5817 5820 5822 5824 5827 5829 5831 5833 5835 5837 5838 5840 5842 5844 5845 5847 5848 5849 5851 5853 5854 5855 5857 5857 5859 5860 5861 5862 5862 5863 5864 5864 5865 5866 5866 5867 5867 5867 5868 5868 5868 5869 5869 5869 5869 5870 5870 5870 5870 5869 5869 5869 5869 5868 5868 5867 5867 5867 5867 5867 5868 5868 5868 5868 5867 5867 5867 5867 5867 5867 5867 5867 5867 5867 5867 5867 5867
5790 5792 5794 5796 5799 5801 5803 5806 5808 5810 5812 5815 5817 5819 5821 5823 5825 5828 5830 5832 5834 5836 5837 5839 5841 5843 5844 5846 5847 5848 5850 5851 5853 5854 5855 5856 5857 5858 5859 5860 5861 5862 5862 5863 5863 5864 5864 5865 5865 5865 5866 5866 5867 5867 5867 5867 5868 5868 5868 5868 5867 5867 5867 5867 5866 5865 5865 5865 5865 5864 5865 5866 5866 5866 5865 5865 5865 5865 5865 5865 5865 5865 5865 5865 5865 5864 5864 5864
5787 5789 5791 5793 5795 5798 5800 5802 5805 5807 5809 5811 5813 5816 5818 5820 5822 5824 5827 5829 5831 5833 5835 5836 5838 5840 5841 5843 5844 5846 5848 5848 5850 5852 5852 5853 5854 5856 5857 5858 5858 5859 5860 5860 5861 5862 5862 5863 5863 5863 5864 5864 5864 5864 5864 5865 5865 5865 5865 5865 5864 5864 5865 5865 5864 5863 5863 5863 5862 5862 5863 5864 5863 5863 5863 5863 5863 5863 5863 5863 5863 5863 5863 5863 5862 5862 5862 5862
5783 5785 5787 5790 5792 5794 5796 5799 5801 5803 5806 5808 5810 5812 5815 5817 5819 5821 5823 5825 5828 5830 5831 5833 5835 5837 5838 5840 5842 5843 5845 5846 5847 5848 5850 5851 5852 5853 5854 5855 5856 5857 5857 5858 5858 5859 5860 5861 5861 5861 5861 5862 5862 5862 5862 5862 5863 5862 5862 5862 5861 5861 5863 5863 5862 5861 5860 5860 5859 5858 5860 5862 5861 5861 5861 5860 5861 5861 5861 5861 5861 5861 5861 5861 5860 5860 5860 5860
5779 5781 5784 5786 5788 5791 5793 5795 5797 5800 5802 5804 5806 5809 5811 5814 5816 5818 5820 5822 5824 5826 5828 5830 5832 5834 5836 5837 5839 5840 5842 5843 5844 5845 5846 5848 5849 5850 5851 5852 5853 5854 5854 5855 5856 5857 5858 5858 5859 5859 5859 5859 5859 5860 5860 5860 5860 5860 5859 5858 5858 5859 5860 5861 5860 5859 5858 5857 5856 5855 5856 5859 5859 5858 5858 5858 5858 5858 5858 5858 5858 5859 5858 5858 5858 5858 5857 5857
5775 5777 5779 5782 5784 5787 5789 5791 5794 5796 5798 5800 5803 5805 5808 5810 5812 5814 5816 5818 5820 5822 5825 5826 5828 5831 5832 5834 5836 5838 5839 5840 5841 5842 5843 5845 5846 5847 5848 5849 5850 5851 5852 5853 5853 5854 5855 5855 5856 5856 5856 5856 5857 5857 5857 5857 5857 5856 5855 5855 5856 5856 5857 5858 5858 5857 5856 5855 5853 5853 5853 5855 5855 5855 5855 5855 5855 5856 5856 5856 5856 5856 5856 5856 5856 5855 5855 5855
5770 5773 5775 5777 5780 5782 5785 5787 5790 5792 5794 5796 5799 5802 5804 5806 5808 5810 5812 5815 5816 5819 5821 5822 5825 5827 5828 5831 5833 5835 5835 5836 5837 5838 5840 5842 5843 5843 5844 5846 5847 5848 5849 5849 5850 5851 5852 5852 5853 5853 5854 5854 5854 5855 5854 5853 5853 5852 5852 5853 5853 5853 5853 5854 5854 5853 5853 5852 5851 5850 5850 5852 5851 5852 5853 5853 5853 5853 5853 5853 5853 5853 5853 5853 5853 5853 5852 5852
5765 5768 5770 5773 5775 5778 5780 5783 5785 5787 5789 5792 5795 5798 5800 5802 5804 5806 5808 5810 5812 5815 5816 5819 5821 5823 5825 5828 5830 5831 5832 5832 5833 5834 5837 5838 5839 5840 5841 5842 5843 5844 5845 5846 5847 5848 5849 5849 5850 5850 5851 5852 5852 5852 5851 5850 5850 5849 5849 5850 5850 5850 5850 5850 5850 5850 5849 5848 5847 5847 5848 5849 5847 5848 5849 5849 5849 5850 5850 5850 5850 5850 5850 5849 5849 5850 5850 5849
5760 5763 5765 5768 5771 5774 5776 5779 5781 5783 5786 5788 5791 5793 5795 5798 5800 5802 5804 5806 5809 5811 5812 5815 5817 5819 5821 5824 5825 5826 5828 5828 5829 5831 5833 5834 5835 5836 5838 5839 5840 5841 5842 5843 5844 5844 5845 5846 5847 5848 5849 5848 5848 5848 5847 5846 5846 5846 5845 5846 5847 5847 5847 5847 5846 5846 5845 5844 5844 5844 5844 5845 5845 5845 5846 5846 5846 5847 5847 5847 5848 5847 5847 5846 5846 5846 5847 5847
5756 5758 5761 5763 5766 5769 5771 5774 5776 5778 5781 5784 5787 5789 5791 5793 5795 5797 5800 5802 5805 5806 5807 5810 5813 5814 5817 5819 5821 5822 5824 5825 5826 5827 5828 5830 5831 5832 5834 5835 5836 5837 5838 5839 5840 5841 5842 5843 5845 5846 5845 5844 5844 5844 5844 5843 5843 5843 5842 5842 5842 5843 5844 5843 5841 5840 5841 5840 5840 5840 5839 5841 5843 5842 5842 5842 5843 5844 5844 5843 5844 5844 5844 5843 5842 5842 5843 5843
5751 5753 5756 5758 5761 5764 5766 5769 5771 5774 5777 5780 5782 5784 5786 5788 5790 5793 5795 5797 5799 5801 5803 5806 5808 5810 5812 5815 5817 5818 5820 5822 5822 5823 5824 5826 5827 5828 5829 5831 5832 5833 5834 5835 5836 5838 5839 5840 5842 5842 5840 5840 5840 5841 5841 5840 5840 5839 5839 5838 5838 5839 5839 5839 5837 5836 5836 5835 5836 5837 5835 5838 5840 5839 5839 5839 5840 5841 5841 5840 5840 5841 5841 5840 5839 5838 5838 5839
5745 5748 5751 5753 5756 5758 5761 5764 5766 5769 5772 5775 5778 5779 5781 5783 5785 5788 5790 5791 5793 5796 5798 5800 5802 5806 5809 5810 5812 5814 5816 5818 5818 5819 5820 5821 5822 5823 5825 5827 5828 5829 5830 5831 5832 5834 5835 5837 5838 5837 5836 5836 5837 5837 5837 5837 5836 5836 5835 5835 5835 5835 5834 5834 5834 5832 5831 5830 5832 5833 5832 5833 5836 5835 5835 5836 5836 5837 5837 5837 5837 5837 5837 5837 5836 5835 5835 5835
5739 5742 5745 5748 5751 5753 5756 5758 5761 5764 5768 5771 5772 5773 5775 5778 5780 5782 5783 5784 5787 5790 5793 5796 5798 5801 5804 5805 5807 5809 5811 5813 5814 5814 5815 5817 5817 5818 5820 5823 5824 5825 5825 5827 5828 5830 5831 5833 5833 5832 5832 5833 5833 5833 5833 5833 5832 5832 5832 5832 5832 5832 5830 5830 5830 5828 5827 5826 5828 5828 5827 5829 5832 5832 5832 5832 5832 5834 5834 5833 5833 5833 5833 5833 5832 5831 5831 5831
5733 5736 5738 5742 5745 5747 5751 5753 5756 5761 5763 5765 5767 5768 5770 5772 5774 5776 5777 5777 5780 5785 5789 5791 5792 5795 5799 5801 5802 5804 5805 5807 5809 5810 5812 5813 5814 5815 5816 5818 5819 5820 5821 5823 5824 5825 5827 5829 5828 5829 5829 5829 5830 5830 5830 5829 5828 5827 5828 5828 5828 5828 5826 5826 5825 5824 5824 5823 5823 5823 5821 5825 5830 5829 5829 5830 5829 5830 5830 5829 5829 5829 5829 5828 5827 5827 5827 5827
5728 5730 5733 5736 5738 5742 5744 5747 5754 5757 5758 5760 5761 5762 5764 5767 5769 5770 5771 5769 5772 5780 5784 5785 5788 5791 5794 5796 5797 5799 5800 5802 5805 5806 5808 5809 5810 5810 5812 5813 5814 5816 5818 5818 5818 5820 5823 5824 5823 5824 5825 5825 5826 5826 5826 5825 5824 5823 5823 5824 5824 5824 5822 5822 5821 5820 5819 5819 5820 5819 5816 5819 5825 5826 5827 5828 5826 5826 5826 5826 5826 5825 5824 5824 5823 5823 5823 5823
5721 5724 5727 5729 5732 5735 5738 5745 5751 5751 5752 5755 5755 5756 5758 5761 5763 5764 5764 5761 5765 5775 5779 5781 5784 5785 5788 5789 5792 5794 5794 5796 5800 5801 5803 5804 5805 5806 5807 5809 5811 5812 5813 5813 5813 5815 5819 5820 5819 5820 5821 5821 5822 5822 5823 5821 5820 5819 5820 5821 5820 5819 5819 5818 5817 5816 5814 5815 5815 5815 5813 5812 5818 5823 5825 5824 5822 5823 5823 5823 5823 5821 5820 5820 5819 5819 5819 5818
5715 5718 5721 5723 5726 5729 5734 5741 5743 5744 5748 5749 5749 5751 5753 5755 5755 5757 5758 5754 5758 5769 5774 5776 5779 5780 5782 5784 5786 5787 5787 5791 5795 5795 5797 5799 5800 5802 5803 5804 5806 5808 5808 5807 5808 5811 5814 5815 5816 5816 5816 5817 5818 5818 5818 5817 5815 5815 5817 5817 5816 5815 5815 5814 5813 5812 5810 5810 5809 5810 5811 5808 5809 5818 5822 5820 5819 5820 5821 5820 5819 5817 5816 5815 5815 5815 5814 5814
5709 5712 5714 5718 5721 5724 5728 5733 5736 5740 5742 5741 5743 5745 5746 5748 5748 5750 5750 5746 5752 5763 5766 5770 5773 5774 5776 5777 5779 5780 5781 5785 5788 5789 5792 5794 5795 5797 5798 5800 5802 5802 5803 5802 5804 5807 5808 5809 5810 5812 5812 5813 5814 5814 5814 5813 5811 5811 5813 5813 5812 5811 5810 5810 5809 5808 5807 5805 5803 5807 5811 5805 5802 5810 5815 5815 5816 5817 5818 5817 5814 5813 5812 5811 5811 5811 5810 5810
5702 5705 5708 5712 5714 5717 5722 5726 5731 5735 5734 5734 5737 5738 5739 5740 5740 5742 5739 5739 5750 5757 5758 5763 5768 5769 5770 5771 5773 5775 5777 5779 5781 5784 5787 5788 5790 5792 5794 5796 5797 5797 5797 5798 5800 5802 5802 5803 5805 5807 5809 5809 5809 5809 5809 5809 5807 5807 5808 5808 5808 5806 5805 5805 5803 5804 5803 5798 5799 5806 5809 5803 5797 5801 5807 5810 5814 5815 5813 5812 5810 5809 5808 5807 5807 5806 5806 5806
5695 5699 5702 5704 5708 5713 5716 5719 5725 5727 5726 5727 5728 5729 5731 5731 5733 5732 5728 5736 5750 5751 5750 5755 5760 5764 5766 5767 5768 5769 5772 5774 5776 5779 5781 5782 5785 5787 5789 5791 5791 5792 5793 5794 5795 5796 5797 5799 5799 5801 5804 5804 5804 5804 5804 5804 5803 5803 5804 5803 5803 5802 5801 5800 5799 5800 5797 5793 5798 5803 5805 5801 5793 5795 5802 5805 5808 5810 5809 5808 5806 5805 5804 5802 5802 5802 5801 5801
5690 5692 5695 5697 5703 5706 5708 5713 5718 5718 5718 5719 5720 5721 5722 5722 5723 5719 5720 5737 5748 5745 5743 5746 5752 5757 5760 5762 5763 5764 5767 5768 5770 5772 5774 5777 5779 5781 5783 5785 5786 5787 5787 5789 5790 5792 5793 5794 5794 5795 5798 5798 5799 5799 5799 5799 5799 5799 5799 5799 5799 5797 5796 5795 5794 5795 5791 5790 5796 5799 5799 5796 5789 5791 5798 5799 5801 5804 5804 5805 5804 5802 5800 5798 5797 5796 5796 5796
5683 5684 5687 5691 5695 5698 5701 5707 5709 5708 5710 5711 5711 5712 5713 5712 5708 5708 5722 5738 5740 5736 5736 5738 5743 5749 5752 5755 5756 5758 5760 5761 5764 5765 5767 5770 5771 5774 5778 5779 5781 5781 5782 5784 5785 5786 5788 5789 5789 5789 5791 5793 5794 5794 5795 5795 5795 5795 5794 5794 5793 5792 5790 5789 5789 5790 5788 5788 5791 5792 5791 5788 5785 5790 5795 5794 5795 5797 5797 5800 5800 5798 5796 5793 5792 5791 5791 5792
5676 5678 5680 5685 5689 5692 5696 5699 5698 5699 5702 5703 5701 5702 5703 5697 5695 5707 5725 5732 5730 5729 5731 5733 5737 5740 5741 5745 5748 5751 5753 5754 5757 5759 5760 5763 5765 5768 5771 5773 5775 5776 5778 5781 5780 5781 5782 5783 5784 5785 5786 5788 5788 5789 5790 5790 5790 5789 5789 5789 5787 5786 5785 5784 5786 5786 5784 5784 5785 5785 5783 5780 5781 5788 5791 5791 5791 5790 5791 5794 5794 5792 5791 5789 5788 5787 5787 5787
5670 5672 5675 5679 5683 5686 5689 5689 5690 5692 5694 5693 5691 5691 5688 5685 5694 5711 5720 5723 5724 5725 5726 5728 5730 5731 5731 5735 5739 5743 5747 5749 5751 5753 5754 5757 5759 5762 5765 5768 5771 5772 5774 5775 5774 5775 5775 5775 5779 5781 5782 5783 5783 5783 5784 5784 5783 5783 5784 5783 5781 5782 5782 5782 5782 5780 5779 5779 5779 5778 5776 5775 5778 5783 5785 5786 5787 5786 5787 5788 5787 5786 5785 5784 5784 5783 5782 5782
5664 5667 5670 5672 5674 5679 5683 5682 5683 5684 5684 5684 5682 5676 5675 5682 5696 5707 5711 5717 5719 5717 5720 5721 5720 5722 5723 5725 5731 5735 5739 5743 5745 5747 5749 5751 5754 5757 5761 5763 5766 5767 5768 5768 5768 5769 5768 5770 5774 5775 5776 5777 5777 5777 5778 5778 5777 5777 5778 5777 5777 5780 5780 5778 5775 5774 5774 5773 5771 5770 5770 5771 5775 5777 5778 5779 5780 5782 5783 5782 5781 5780 5779 5779 5779 5778 5778 5777
5657 5660 5662 5663 5667 5674 5677 5676 5676 5676 5675 5674 5670 5664 5669 5684 5696 5700 5704 5711 5712 5710 5713 5713 5712 5715 5716 5718 5724 5728 5731 5735 5738 5740 5743 5746 5748 5752 5755 5758 5760 5760 5762 5763 5763 5763 5763 5764 5766 5767 5769 5771 5770 5771 5772 5772 5771 5771 5771 5773 5775 5775 5775 5773 5770 5769 5770 5767 5764 5765 5765 5767 5769 5770 5772 5774 5774 5776 5776 5776 5776 5775 5775 5775 5774 5773 5773 5772
5651 5654 5653 5657 5665 5668 5670 5671 5670 5668 5667 5664 5659 5660 5671 5684 5690 5692 5695 5701 5703 5703 5705 5705 5706 5709 5710 5712 5716 5720 5723 5726 5729 5733 5737 5739 5741 5746 5750 5752 5754 5755 5757 5757 5756 5756 5757 5757 5759 5760 5762 5764 5764 5765 5766 5766 5765 5765 5767 5770 5770 5769 5768 5768 5766 5765 5765 5762 5759 5760 5761 5762 5763 5764 5768 5770 5769 5769 5770 5771 5772 5771 5771 5770 5769 5769 5768 5768
5644 5646 5646 5652 5660 5661 5663 5665 5662 5661 5659 5653 5650 5658 5669 5678 5683 5684 5686 5689 5692 5693 5696 5700 5702 5703 5704 5706 5709 5712 5714 5716 5720 5724 5728 5731 5735 5741 5744 5745 5748 5750 5751 5750 5748 5749 5751 5750 5752 5754 5755 5756 5757 5758 5759 5760 5760 5761 5763 5764 5763 5762 5762 5763 5762 5761 5759 5757 5754 5755 5756 5757 5759 5761 5762 5764 5764 5764 5765 5766 5767 5767 5766 5765 5765 5765 5764 5763
5635 5637 5639 5647 5653 5654 5655 5657 5655 5652 5648 5641 5643 5655 5666 5673 5676 5676 5675 5678 5681 5683 5688 5695 5697 5696 5697 5700 5703 5705 5706 5708 5712 5715 5718 5722 5728 5734 5737 5739 5741 5743 5743 5742 5741 5743 5744 5744 5746 5747 5748 5749 5750 5751 5753 5755 5757 5757 5758 5757 5756 5756 5756 5757 5757 5756 5755 5753 5751 5751 5750 5751 5755 5756 5756 5756 5758 5760 5762 5762 5762 5762 5761 5761 5760 5760 5759 5759
5627 5629 5632 5641 5646 5647 5650 5650 5646 5640 5636 5634 5641 5653 5662 5665 5666 5667 5669 5672 5674 5675 5682 5688 5689 5688 5691 5694 5696 5697 5699 5701 5705 5707 5710 5714 5720 5726 5729 5730 5733 5735 5735 5734 5735 5736 5736 5738 5740 5740 5741 5742 5744 5747 5749 5751 5751 5750 5750 5750 5750 5751 5751 5751 5751 5751 5751 5750 5749 5748 5743 5743 5748 5749 5749 5751 5753 5756 5759 5758 5757 5757 5756 5756 5755 5755 5754 5754
5618 5619 5627 5636 5638 5640 5643 5639 5633 5630 5628 5630 5639 5649 5655 5655 5657 5661 5663 5665 5666 5668 5675 5679 5679 5682 5687 5688 5688 5691 5693 5694 5697 5700 5702 5706 5711 5716 5720 5723 5726 5728 5728 5726 5728 5731 5731 5732 5734 5734 5735 5737 5740 5742 5743 5742 5743 5743 5744 5744 5744 5745 5746 5745 5745 5746 5747 5746 5746 5743 5736 5736 5742 5742 5742 5746 5748 5750 5753 5753 5752 5752 5751 5751 5750 5750 5749 5749
5606 5611 5623 5629 5627 5631 5633 5627 5625 5624 5622 5627 5637 5644 5646 5648 5652 5654 5655 5657 5658 5662 5667 5671 5672 5676 5680 5681 5682 5684 5685 5687 5690 5692 5695 5699 5704 5708 5712 5716 5717 5719 5719 5719 5722 5724 5723 5723 5725 5727 5729 5731 5732 5733 5734 5735 5736 5736 5737 5737 5739 5741 5742 5741 5740 5740 5740 5739 5739 5736 5730 5731 5737 5737 5737 5741 5743 5743 5745 5746 5746 5746 5745 5745 5746 5745 5745 5745
5596 5607 5618 5618 5618 5622 5621 5617 5619 5618 5616 5624 5633 5635 5637 5642 5644 5645 5649 5651 5654 5658 5661 5664 5667 5669 5672 5675 5676 5676 5677 5679 5682 5685 5689 5692 5696 5702 5705 5706 5708 5709 5710 5712 5715 5716 5715 5715 5717 5720 5722 5724 5725 5726 5728 5729 5728 5727 5730 5733 5735 5736 5736 5735 5733 5733 5733 5732 5732 5729 5724 5726 5731 5731 5731 5736 5738 5737 5738 5740 5740 5740 5740 5740 5740 5740 5740 5740
5591 5601 5606 5607 5610 5613 5609 5607 5611 5611 5613 5620 5623 5624 5630 5635 5635 5639 5645 5647 5649 5653 5655 5658 5662 5664 5666 5667 5667 5669 5671 5673 5676 5680 5684 5685 5689 5695 5696 5697 5699 5700 5703 5706 5708 5708 5707 5708 5710 5712 5714 5717 5718 5719 5721 5722 5722 5723 5726 5728 5727 5728 5728 5726 5726 5726 5724 5726 5726 5720 5717 5723 5728 5726 5726 5729 5731 5731 5732 5733 5733 5734 5734 5734 5734 5735 5736 5736
5582 5587 5592 5596 5601 5602 5599 5601 5605 5606 5610 5614 5614 5618 5624 5626 5629 5635 5639 5640 5643 5646 5648 5653 5656 5657 5659 5659 5660 5662 5665 5668 5672 5674 5676 5678 5683 5687 5687 5689 5691 5693 5697 5699 5700 5700 5700 5701 5702 5702 5704 5708 5712 5714 5716 5717 5717 5716 5718 5719 5718 5720 5720 5718 5718 5717 5715 5718 5718 5713 5714 5721 5723 5721 5721 5723 5724 5725 5725 5725 5725 5727 5728 5728 5728 5729 5731 5731
5568 5573 5580 5587 5591 5591 5592 5596 5598 5598 5602 5606 5607 5611 5615 5617 5624 5629 5629 5632 5637 5640 5643 5648 5650 5650 5652 5653 5654 5657 5660 5664 5667 5668 5669 5672 5675 5678 5680 5682 5685 5687 5690 5691 5691 5692 5693 5692 5694 5694 5697 5702 5707 5711 5711 5709 5707 5708 5710 5712 5711 5712 5712 5710 5708 5708 5709 5709 5708 5709 5712 5715 5716 5716 5717 5718 5718 5717 5717 5717 5718 5721 5722 5722 5723 5723 5725 5725
5556 5561 5572 5578 5581 5582 5584 5588 5589 5590 5595 5599 5600 5604 5608 5613 5618 5619 5620 5626 5632 5635 5637 5640 5641 5642 5645 5648 5651 5654 5657 5659 5660 5662 5665 5667 5669 5671 5673 5676 5679 5680 5682 5684 5684 5684 5684 5684 5686 5689 5691 5696 5702 5705 5702 5699 5699 5701 5702 5703 5703 5704 5704 5701 5699 5702 5704 5698 5697 5707 5708 5705 5709 5712 5711 5713 5712 5709 5710 5711 5713 5714 5714 5715 5716 5717 5717 5717
5546 5554 5565 5570 5569 5571 5575 5581 5584 5586 5590 5592 5593 5598 5602 5606 5609 5610 5615 5623 5626 5626 5628 5630 5633 5638 5642 5645 5646 5648 5650 5652 5653 5658 5662 5662 5664 5666 5668 5671 5674 5674 5676 5678 5679 5678 5677 5678 5681 5683 5684 5688 5694 5696 5694 5691 5692 5693 5694 5694 5696 5696 5694 5693 5692 5696 5696 5687 5690 5702 5700 5696 5703 5706 5704 5706 5705 5703 5706 5706 5705 5705 5705 5707 5708 5708 5709 5709
5539 5547 5555 5558 5557 5561 5568 5574 5577 5580 5584 5585 5586 5591 5594 5597 5602 5605 5611 5615 5615 5616 5619 5622 5628 5635 5637 5638 5638 5639 5643 5645 5648 5655 5658 5657 5658 5660 5662 5665 5669 5671 5671 5672 5673 5672 5671 5674 5677 5676 5676 5680 5686 5688 5686 5683 5682 5684 5686 5687 5689 5689 5687 5686 5685 5687 5686 5680 5685 5694 5690 5690 5697 5697 5696 5700 5699 5699 5701 5700 5698 5698 5697 5698 5698 5699 5700 5701
5531 5537 5544 5546 5548 5555 5561 5564 5565 5568 5574 5576 5578 5582 5586 5591 5596 5600 5602 5605 5607 5610 5613 5618 5625 5629 5629 5629 5630 5632 5638 5641 5644 5650 5652 5650 5651 5654 5656 5658 5662 5665 5665 5665 5666 5665 5664 5667 5670 5668 5667 5671 5679 5680 5676 5673 5673 5675 5677 5679 5682 5682 5679 5676 5677 5680 5679 5677 5682 5686 5681 5684 5691 5690 5689 5692 5691 5691 5693 5692 5692 5691 5690 5690 5690 5690 5691 5692
5524 5530 5535 5536 5539 5546 5551 5553 5555 5557 5561 5565 5570 5575 5579 5583 5589 5593 5594 5597 5602 5604 5606 5613 5621 5622 5620 5621 5622 5627 5636 5638 5639 5643 5644 5643 5645 5648 5649 5650 5653 5656 5657 5657 5658 5657 5658 5659 5662 5661 5658 5663 5672 5671 5666 5666 5665 5663 5667 5675 5678 5675 5670 5670 5672 5675 5674 5673 5676 5676 5673 5680 5686 5683 5682 5683 5682 5682 5684 5684 5685 5684 5683 5684 5683 5683 5684 5684
5517 5522 5525 5526 5529 5535 5540 5544 5547 5547 5548 5555 5564 5569 5572 5577 5583 5585 5585 5588 5593 5597 5599 5606 5612 5611 5610 5612 5616 5625 5631 5631 5631 5634 5635 5636 5639 5640 5641 5643 5645 5647 5649 5651 5650 5650 5652 5653 5655 5655 5652 5656 5664 5661 5658 5659 5655 5653 5662 5673 5673 5667 5663 5664 5665 5667 5667 5667 5667 5666 5667 5675 5676 5672 5673 5675 5675 5676 5677 5677 5677 5677 5677 5676 5676 5677 5677 5677